TYVAK-0171 (46295 NORAD) Tracking and Keplerian Element Data

This shows tracking and keplerian element data for the satellite.

Feedback or suggestion? Click here.




ElementValue
Catalog46295
NameTYVAK-0171
Epoch Orbit1344
Epoch Day336.84794802
Epoch Year2020
RAAN48.3101
Inclination97.5109
Eccentricity0.0003742
Argument of Perigee31.322
Mean Anonmoly328.8232
Mean Motion15.10537761
Decay Rate2.95E-05
L11 46295U 20061Z 20336.84794802 .00002950 00000-0 18277-3 0 9995
L22 46295 97.5109 48.3101 0003742 31.3220 328.8232 15.10537761 13449

Live tracking and technical data element details for TYVAK-0171 (NORAD 46295). TYVAK-0171 can be tracked NOW for your location showing map with azimuth and elevation plus other details from your city location.

Track the satellite on the map from your city or location and see movement details for azimuth, elevation, latitude, longitude, range, height, and movement on the map or in text.







IsCatalogInMostPopularTable: catalog: 46295, numindb: 18
Update: records affected: 1



GetName: 46295 TYVAK-0171

Hit Count: updated at: Thu, 03 Dec 2020 06:43:20 GMT